Observations for Trim Patrick St
| Time | AQI | Temp °C | Hum % | Pres Pa | CO μg/m³ | H₂S μg/m³ | NO μg/m³ | NO₂ μg/m³ | O₃ μg/m³ | SO₂ μg/m³ | PM1 μg/m³ | PM2.5 μg/m³ | PM10 μg/m³ |
|---|---|---|---|---|---|---|---|---|---|---|---|---|---|
| Monday 3 August 2026 | |||||||||||||
| 17:56 | 4 | 25.2 | 39 | 68,955 | 0 | 17.76 | 0.93 | 24.04 | 103.4 | 9.3 | 5.43 | 12.61 | 13.87 |
| 17:55 | 4 | 25.3 | 39 | 68,951 | 0 | 17.86 | 0.94 | 24.82 | 125.77 | 8.77 | 5.43 | 12.61 | 13.87 |
| 17:54 | 4 | 25.3 | 39 | 68,975 | 0 | 17.67 | 0.99 | 19.48 | 109.63 | 9.51 | 5.43 | 12.62 | 13.88 |
| 17:53 | 4 | 25.4 | 38 | 68,979 | 0 | 16.82 | 0.97 | 24.56 | 117.67 | 9.11 | 7.14 | 13.44 | 14.78 |
| 17:52 | 4 | 25.4 | 39 | 68,983 | 0 | 15.36 | 0.96 | 20.04 | 107.78 | 8.85 | 4.57 | 11.07 | 12.18 |
| 17:51 | 4 | 25.5 | 38 | 68,989 | 0 | 17.4 | 0.99 | 21.3 | 117.02 | 10.01 | 3.71 | 10.3 | 11.33 |
| 17:50 | 4 | 25.5 | 38 | 68,995 | 0 | 17.45 | 0.92 | 22.66 | 107.45 | 9.41 | 3.71 | 9.52 | 10.47 |
| 17:49 | 4 | 25.6 | 38 | 69,002 | 0 | 16.65 | 0.92 | 28.61 | 114.09 | 9.2 | 3.71 | 9.52 | 10.47 |
| 17:48 | 4 | 25.6 | 38 | 68,983 | 0 | 16.12 | 0.9 | 19.17 | 93.77 | 9.07 | 3.71 | 10.33 | 11.37 |
| 17:47 | 4 | 25.7 | 38 | 68,987 | 0 | 18.91 | 0.93 | 30.88 | 147.42 | 10.13 | 3.71 | 10.34 | 11.37 |
| 17:46 | 4 | 25.7 | 38 | 68,991 | 0 | 15.5 | 0.91 | 19.1 | 118.61 | 9.53 | 5.43 | 15.07 | 16.58 |
| 17:45 | 4 | 25.8 | 38 | 68,993 | 0 | 16.59 | 0.94 | 20.49 | 140.34 | 9.73 | 4.57 | 11.15 | 12.27 |
| 17:43 | 4 | 25.9 | 37 | 69,039 | 0 | 13.87 | 0.93 | 18.57 | 109.7 | 9.27 | 3.71 | 9.58 | 10.54 |
| 17:42 | 4 | 26 | 37 | 69,055 | 0 | 13.76 | 0.92 | 19.77 | 101.43 | 8.82 | 3.71 | 10.38 | 11.41 |
| 17:41 | 4 | 26 | 37 | 69,051 | 0 | 14.98 | 0.93 | 19.06 | 123.4 | 9.63 | 3.71 | 9.61 | 10.57 |
| 17:40 | 4 | 26.1 | 37 | 69,049 | 0 | 16.12 | 0.93 | 19.82 | 124.65 | 10.15 | 3.71 | 8.81 | 9.69 |
| 17:39 | 4 | 26.1 | 37 | 69,045 | 0 | 13.41 | 0.94 | 20.78 | 110.88 | 9.71 | 2.86 | 8.84 | 9.72 |
| 17:38 | 4 | 26.2 | 37 | 69,037 | 0 | 14.55 | 0.94 | 21.19 | 132.12 | 9.64 | 3.71 | 10.4 | 11.44 |
| 17:37 | 4 | 26.3 | 37 | 69,025 | 0 | 13.9 | 0.94 | 19.86 | 122.23 | 10.23 | 3.71 | 10.38 | 11.42 |
| 17:36 | 4 | 26.3 | 36 | 69,033 | 0 | 12.73 | 0.94 | 18 | 104.45 | 9.82 | 3.71 | 8.87 | 9.76 |